Japanese version Home page |
Updated on May 25, 2008 |
Profile
|
Orbital ElementsEpoch = 1999 May 22.0 TT T = 1999 May 12.1310 TT Peri. = 132.1799 e = 0.169470 Node = 112.0187 2000.0 q = 3.712711 AU Incl. = 13.7164 a = 4.470289 AU n = 0.1042799 P = 9.45 years
|
Finding Charts
|
Magnitudes Graphm1 = -13.0 + 5 log d + 50.0 log r
|
The orbital elements are calculated by G. V. Williams and printed on
IAUC 8827.
|